Terminal Aerodrome Forecast
Issued by NWS

Home | Current Version | Previous Version | Graphics & Text | Print | Product List | Glossary On
Versions: 1 2 3 4 5 6 7 8 9 10 11 12 13 14
237
FTUS42 KMHX 100530
TAFOAJ
TAF
KOAJ 100530Z 1006/1106 27005KT P6SM SKC
      TEMPO 1006/1007 BKN015
     FM101400 28010KT P6SM SKC
     FM102200 23003KT P6SM SKC
      AMD LTD TO CLD VIS AND WIND=

USA.gov is the U.S. government's official web portal to all federal, state and local government web resources and services.